Weather in Bharatpur

India     27°12′39″N   77°28′53″E
temp.,
°C
wind,
m/s
gust,
m/s
humid.,
%
clouds,
%
prec.,
mm/h
press.,
hPa
HPBL,
m
14 june, mon
mon1423:30+35e47345 0.0 998365
02:30+31se57634 0.0 998485
05:30+30ese23640 0.0 997271
08:30+34se33490 0.0 998880
11:30+39nnw253223 0.0 9972743
14:30+43nnw462153 0.0 9934483
17:30+43nnw761751 0.0 9903789
20:30+36sw583219 0.0 992293
15 june, tue
tue1523:30+34se673940 0.3 994316
02:30+32sse47504 0.0 993396
05:30+32e11490 0.0 99218
08:30+37nw46310 0.0 9941593
11:30+41wnw452583 0.0 9933487
14:30+33s10114695 0.5 991280
17:30+39ne322682 1.6 991989
20:30+35ene5103514 0.2 992370
16 june, wed
wed1623:30+34ese4738100 2.6 994394
02:30+31se6105168 0.4 993282
05:30+31nne33490 0.4 99594
08:30+34wsw11415 0.0 997777
11:30+39nw56280 0.0 9972335
14:30+42nnw662071 0.0 9944067
17:30+38sw562526 0.0 993506
20:30+35nne473550 0.0 996541
17 june, thu
thu1723:30+34ne01405 0.0 99716
02:30+33s11425 0.0 99714
05:30+31wnw48465 0.1 997386
08:30+35nnw67354 0.0 999783
11:30+39nnw43255 0.0 9982418
14:30+41nnw532247 0.0 9963413
17:30+41n33200 0.0 9943419
20:30+36ese793387 0.0 997732
18 june, fri
fri1823:30+33s465173 0.0 999555
02:30+32se235162 0.0 997292
05:30+31e235578 0.0 997179
08:30+35ese32436 0.0 999915
11:30+39ene1230100 0.0 9982516
14:30+40e3227100 0.0 9962610
17:30+31se81058100 0.8 998583
20:30+31ese3453100 0.0 999586